Location: Casalecchio di Reno
(44.4760°N, 11.2757°E)
Time: 17:57:49
(UTC+02:00)

DX 1 - Pass Details

Date: 19 June 2024
Orbit: 607 x 619 km, 98.3° (Epoch: 19 July)

Event Time Altitude Azimuth Distance (km) Brightness Sun altitude
Rises 01:51:18 0° 7° (N) 2,878 ? -21.6°
Reaches altitude 10° 01:53:32 10° 2° (N) 1,969 ? -21.6°
Maximum altitude 01:57:37 47° 289° (WNW) 814 ? -21.4°
Enters shadow 01:58:29 40° 254° (WSW) 896 ? -21.4°
